Time,TemperatureF,DewpointF,PressureIn,WindDirection,WindDirectionDegrees,WindSpeedMPH,WindSpeedGustMPH,Humidity,HourlyPrecipIn,Conditions,Clouds,dailyrainin,SoftwareType,DateUTC
2013-03-06 00:02:00,39.5,38.0,29.65,NNW,340,0.0,2.0,94,0.00,,,0.00,weatherlink.com 1.10,2013-03-06 08:02:00,
2013-03-06 00:17:00,39.5,38.0,29.65,NW,326,1.0,2.0,94,0.00,,,0.00,weatherlink.com 1.10,2013-03-06 08:17:00,
2013-03-06 00:32:00,39.5,38.0,29.64,WNW,292,0.0,2.0,94,0.00,,,0.00,weatherlink.com 1.10,2013-03-06 08:32:00,
2013-03-06 00:47:00,39.5,38.0,29.64,NNE,25,0.0,1.0,94,0.00,,,0.00,weatherlink.com 1.10,2013-03-06 08:47:00,
2013-03-06 01:02:00,39.4,38.0,29.63,East,82,0.0,1.0,94,0.00,,,0.00,weatherlink.com 1.10,2013-03-06 09:02:00,
2013-03-06 01:17:00,39.5,38.0,29.62,East,95,2.0,2.0,94,0.00,,,0.00,weatherlink.com 1.10,2013-03-06 09:17:00,
2013-03-06 01:32:00,39.4,38.0,29.62,East,82,0.0,0.0,94,0.00,,,0.00,weatherlink.com 1.10,2013-03-06 09:32:00,
2013-03-06 01:47:00,39.3,38.0,29.62,East,82,0.0,1.0,95,0.00,,,0.00,weatherlink.com 1.10,2013-03-06 09:47:00,
2013-03-06 02:02:00,39.3,38.0,29.61,East,82,0.0,0.0,95,0.00,,,0.00,weatherlink.com 1.10,2013-03-06 10:02:00,
2013-03-06 02:17:00,39.3,38.0,29.61,North,4,0.0,0.0,95,0.00,,,0.00,weatherlink.com 1.10,2013-03-06 10:17:00,
2013-03-06 02:32:00,39.4,38.0,29.60,West,259,0.0,1.0,95,0.00,,,0.00,weatherlink.com 1.10,2013-03-06 10:32:00,
2013-03-06 02:47:00,39.7,38.0,29.59,ENE,67,0.0,3.0,94,0.00,,,0.00,weatherlink.com 1.10,2013-03-06 10:47:00,
2013-03-06 03:02:00,40.0,38.0,29.58,WNW,291,0.0,1.0,93,0.00,,,0.00,weatherlink.com 1.10,2013-03-06 11:02:00,
2013-03-06 03:17:00,39.9,38.0,29.58,SE,134,0.0,1.0,93,0.01,,,0.01,weatherlink.com 1.10,2013-03-06 11:17:00,
2013-03-06 03:32:00,40.0,38.0,29.57,NE,53,0.0,3.0,93,0.01,,,0.01,weatherlink.com 1.10,2013-03-06 11:32:00,
2013-03-06 03:47:00,39.8,39.0,29.57,NNE,19,0.0,1.0,95,0.01,,,0.01,weatherlink.com 1.10,2013-03-06 11:47:00,
2013-03-06 04:02:00,39.8,39.0,29.56,NE,37,1.0,2.0,95,0.02,,,0.02,weatherlink.com 1.10,2013-03-06 12:02:00,
2013-03-06 04:17:00,40.1,39.0,29.56,ESE,106,0.0,1.0,94,0.01,,,0.02,weatherlink.com 1.10,2013-03-06 12:17:00,
2013-03-06 04:32:00,39.8,39.0,29.56,ESE,105,0.0,0.0,95,0.03,,,0.04,weatherlink.com 1.10,2013-03-06 12:32:00,
2013-03-06 04:47:00,39.7,39.0,29.55,ESE,106,0.0,1.0,96,0.04,,,0.05,weatherlink.com 1.10,2013-03-06 12:47:00,
2013-03-06 05:02:00,39.6,39.0,29.55,ESE,105,0.0,0.0,96,0.04,,,0.06,weatherlink.com 1.10,2013-03-06 13:02:00,
2013-03-06 05:17:00,39.6,39.0,29.55,ESE,105,0.0,0.0,96,0.05,,,0.07,weatherlink.com 1.10,2013-03-06 13:17:00,
2013-03-06 05:32:00,39.6,39.0,29.55,ESE,105,0.0,0.0,96,0.04,,,0.08,weatherlink.com 1.10,2013-03-06 13:32:00,
2013-03-06 05:47:00,39.5,39.0,29.55,ESE,105,0.0,0.0,96,0.04,,,0.09,weatherlink.com 1.10,2013-03-06 13:47:00,
2013-03-06 06:02:00,39.4,39.0,29.55,ESE,106,0.0,0.0,97,0.04,,,0.10,weatherlink.com 1.10,2013-03-06 14:02:00,
2013-03-06 06:17:00,39.3,39.0,29.55,ESE,105,0.0,0.0,97,0.04,,,0.11,weatherlink.com 1.10,2013-03-06 14:17:00,
2013-03-06 06:32:00,39.3,39.0,29.54,ESE,104,0.0,0.0,97,0.04,,,0.12,weatherlink.com 1.10,2013-03-06 14:32:00,
2013-03-06 06:47:00,39.4,39.0,29.54,ESE,105,0.0,0.0,97,0.03,,,0.12,weatherlink.com 1.10,2013-03-06 14:47:00,
2013-03-06 07:02:00,39.4,39.0,29.55,ESE,105,0.0,0.0,97,0.03,,,0.13,weatherlink.com 1.10,2013-03-06 15:02:00,
2013-03-06 07:17:00,39.5,39.0,29.55,ESE,105,0.0,0.0,97,0.01,,,0.13,weatherlink.com 1.10,2013-03-06 15:17:00,
2013-03-06 07:32:00,39.7,39.0,29.55,ESE,105,0.0,0.0,97,0.01,,,0.13,weatherlink.com 1.10,2013-03-06 15:32:00,
2013-03-06 07:47:00,39.9,39.0,29.55,ESE,105,0.0,0.0,97,0.01,,,0.13,weatherlink.com 1.10,2013-03-06 15:47:00,
2013-03-06 08:02:00,39.8,39.0,29.56,SSE,149,0.0,0.0,97,0.00,,,0.13,weatherlink.com 1.10,2013-03-06 16:02:00,
2013-03-06 08:17:00,40.0,39.0,29.57,SSE,149,0.0,0.0,97,0.00,,,0.13,weatherlink.com 1.10,2013-03-06 16:17:00,
2013-03-06 08:32:00,40.0,39.0,29.57,WSW,251,0.0,0.0,97,0.00,,,0.13,weatherlink.com 1.10,2013-03-06 16:32:00,
2013-03-06 08:47:00,40.4,40.0,29.57,WSW,252,0.0,0.0,98,0.01,,,0.14,weatherlink.com 1.10,2013-03-06 16:47:00,
2013-03-06 09:02:00,40.5,40.0,29.58,WSW,252,0.0,0.0,98,0.01,,,0.14,weatherlink.com 1.10,2013-03-06 17:02:00,
2013-03-06 09:18:00,40.8,40.0,29.59,WSW,246,1.0,1.0,98,0.02,,,0.15,weatherlink.com 1.10,2013-03-06 17:18:00,
2013-03-06 09:33:00,40.6,40.0,29.59,SSW,195,0.0,1.0,97,0.03,,,0.16,weatherlink.com 1.10,2013-03-06 17:33:00,
2013-03-06 09:48:00,40.6,40.0,29.60,WSW,239,0.0,1.0,97,0.03,,,0.17,weatherlink.com 1.10,2013-03-06 17:48:00,
2013-03-06 10:03:00,40.8,40.0,29.61,WSW,242,0.0,0.0,98,0.04,,,0.18,weatherlink.com 1.10,2013-03-06 18:03:00,
2013-03-06 10:18:00,41.1,41.0,29.61,WSW,242,0.0,0.0,98,0.04,,,0.19,weatherlink.com 1.10,2013-03-06 18:18:00,
2013-03-06 10:33:00,41.2,40.0,29.62,SE,134,0.0,1.0,97,0.03,,,0.19,weatherlink.com 1.10,2013-03-06 18:33:00,
2013-03-06 10:48:00,41.2,40.0,29.63,ESE,111,0.0,1.0,97,0.04,,,0.21,weatherlink.com 1.10,2013-03-06 18:48:00,
2013-03-06 11:03:00,40.9,40.0,29.64,SE,146,0.0,2.0,97,0.03,,,0.21,weatherlink.com 1.10,2013-03-06 19:03:00,
2013-03-06 11:18:00,41.1,40.0,29.64,SSE,149,0.0,3.0,97,0.04,,,0.23,weatherlink.com 1.10,2013-03-06 19:18:00,
2013-03-06 11:33:00,41.2,40.0,29.65,South,176,0.0,3.0,97,0.03,,,0.23,weatherlink.com 1.10,2013-03-06 19:33:00,
2013-03-06 11:48:00,41.1,40.0,29.66,SE,135,2.0,3.0,97,0.03,,,0.24,weatherlink.com 1.10,2013-03-06 19:48:00,
2013-03-06 12:03:00,41.0,40.0,29.67,SSE,155,3.0,4.0,97,0.05,,,0.26,weatherlink.com 1.10,2013-03-06 20:03:00,
2013-03-06 12:18:00,40.8,40.0,29.67,SSW,193,2.0,5.0,97,0.03,,,0.26,weatherlink.com 1.10,2013-03-06 20:18:00,
2013-03-06 12:33:00,40.9,40.0,29.68,ESE,111,3.0,6.0,97,0.03,,,0.27,weatherlink.com 1.10,2013-03-06 20:33:00,
2013-03-06 12:48:00,41.2,40.0,29.69,South,169,3.0,4.0,97,0.02,,,0.27,weatherlink.com 1.10,2013-03-06 20:48:00,
2013-03-06 13:03:00,41.3,41.0,29.69,SE,129,0.0,4.0,98,0.03,,,0.29,weatherlink.com 1.10,2013-03-06 21:03:00,
2013-03-06 13:18:00,41.4,41.0,29.70,South,186,1.0,5.0,98,0.04,,,0.30,weatherlink.com 1.10,2013-03-06 21:18:00,
2013-03-06 13:33:00,41.6,41.0,29.71,South,173,2.0,5.0,98,0.05,,,0.32,weatherlink.com 1.10,2013-03-06 21:33:00,
2013-03-06 13:48:00,41.7,41.0,29.71,SSE,148,1.0,8.0,98,0.07,,,0.34,weatherlink.com 1.10,2013-03-06 21:48:00,
2013-03-06 14:03:00,41.3,41.0,29.72,SE,146,3.0,8.0,97,0.07,,,0.36,weatherlink.com 1.10,2013-03-06 22:03:00,
2013-03-06 14:18:00,41.1,40.0,29.73,East,101,3.0,7.0,97,0.08,,,0.38,weatherlink.com 1.10,2013-03-06 22:18:00,
2013-03-06 14:33:00,41.0,40.0,29.74,ESE,118,2.0,7.0,97,0.07,,,0.39,weatherlink.com 1.10,2013-03-06 22:33:00,
2013-03-06 14:48:00,41.1,40.0,29.74,ESE,110,1.0,7.0,97,0.06,,,0.40,weatherlink.com 1.10,2013-03-06 22:48:00,
2013-03-06 15:03:00,41.1,40.0,29.75,East,97,2.0,6.0,97,0.05,,,0.41,weatherlink.com 1.10,2013-03-06 23:03:00,
2013-03-06 15:18:00,41.1,40.0,29.75,SE,127,1.0,6.0,97,0.03,,,0.41,weatherlink.com 1.10,2013-03-06 23:18:00,
2013-03-06 15:33:00,41.0,40.0,29.76,ENE,78,3.0,8.0,97,0.03,,,0.42,weatherlink.com 1.10,2013-03-06 23:33:00,
2013-03-06 15:48:00,41.0,40.0,29.77,ESE,107,5.0,10.0,97,0.03,,,0.43,weatherlink.com 1.10,2013-03-06 23:48:00,
2013-03-06 16:03:00,41.1,40.0,29.77,ESE,111,4.0,10.0,97,0.03,,,0.44,weatherlink.com 1.10,2013-03-07 00:03:00,
2013-03-06 16:18:00,41.2,40.0,29.78,SSW,212,5.0,9.0,97,0.03,,,0.44,weatherlink.com 1.10,2013-03-07 00:18:00,
2013-03-06 16:48:00,41.4,41.0,29.79,SE,140,4.0,6.0,97,0.02,,,0.45,weatherlink.com 1.10,2013-03-07 00:48:00,
2013-03-06 17:04:00,41.4,41.0,29.79,SSE,147,1.0,6.0,97,0.01,,,0.45,weatherlink.com 1.10,2013-03-07 01:04:00,
2013-03-06 17:19:00,41.5,41.0,29.80,SE,124,3.0,6.0,97,0.01,,,0.45,weatherlink.com 1.10,2013-03-07 01:19:00,
2013-03-06 17:34:00,41.5,41.0,29.80,ENE,75,2.0,5.0,97,0.01,,,0.46,weatherlink.com 1.10,2013-03-07 01:34:00,
2013-03-06 17:49:00,41.6,41.0,29.81,ESE,122,0.0,6.0,97,0.01,,,0.46,weatherlink.com 1.10,2013-03-07 01:49:00,
2013-03-06 18:04:00,41.7,41.0,29.81,ENE,58,4.0,5.0,97,0.01,,,0.46,weatherlink.com 1.10,2013-03-07 02:04:00,
2013-03-06 18:19:00,41.9,41.0,29.82,SE,136,2.0,6.0,97,0.02,,,0.47,weatherlink.com 1.10,2013-03-07 02:19:00,
2013-03-06 18:34:00,42.0,41.0,29.83,ESE,106,0.0,4.0,97,0.01,,,0.47,weatherlink.com 1.10,2013-03-07 02:34:00,
2013-03-06 18:49:00,42.1,41.0,29.84,SE,128,1.0,6.0,97,0.01,,,0.47,weatherlink.com 1.10,2013-03-07 02:49:00,
2013-03-06 19:04:00,42.3,42.0,29.84,SE,136,1.0,6.0,97,0.02,,,0.48,weatherlink.com 1.10,2013-03-07 03:04:00,
2013-03-06 19:19:00,42.4,42.0,29.85,East,97,0.0,5.0,97,0.03,,,0.50,weatherlink.com 1.10,2013-03-07 03:19:00,
2013-03-06 19:34:00,42.4,42.0,29.85,ESE,121,3.0,6.0,97,0.03,,,0.50,weatherlink.com 1.10,2013-03-07 03:34:00,
2013-03-06 19:49:00,42.5,42.0,29.86,East,80,4.0,6.0,97,0.03,,,0.50,weatherlink.com 1.10,2013-03-07 03:49:00,
2013-03-06 20:04:00,42.6,42.0,29.86,SE,137,2.0,7.0,97,0.02,,,0.50,weatherlink.com 1.10,2013-03-07 04:04:00,
2013-03-06 20:19:00,42.6,42.0,29.87,East,97,4.0,7.0,97,0.00,,,0.50,weatherlink.com 1.10,2013-03-07 04:19:00,
2013-03-06 20:34:00,42.7,42.0,29.88,ESE,105,1.0,7.0,96,0.00,,,0.50,weatherlink.com 1.10,2013-03-07 04:34:00,
2013-03-06 20:49:00,42.6,42.0,29.89,ESE,112,3.0,9.0,96,0.00,,,0.50,weatherlink.com 1.10,2013-03-07 04:49:00,
2013-03-06 21:04:00,42.5,42.0,29.89,ESE,106,0.0,8.0,96,0.00,,,0.50,weatherlink.com 1.10,2013-03-07 05:04:00,
2013-03-06 21:19:00,42.4,41.0,29.90,SE,131,2.0,7.0,96,0.00,,,0.50,weatherlink.com 1.10,2013-03-07 05:19:00,
2013-03-06 21:34:00,42.3,41.0,29.91,South,181,2.0,7.0,96,0.00,,,0.50,weatherlink.com 1.10,2013-03-07 05:34:00,
2013-03-06 21:49:00,42.3,41.0,29.91,SE,124,6.0,6.0,95,0.00,,,0.50,weatherlink.com 1.10,2013-03-07 05:49:00,
2013-03-06 22:04:00,42.1,41.0,29.91,SE,146,2.0,5.0,95,0.00,,,0.50,weatherlink.com 1.10,2013-03-07 06:04:00,
2013-03-06 22:19:00,41.9,41.0,29.93,SE,127,1.0,5.0,95,0.00,,,0.50,weatherlink.com 1.10,2013-03-07 06:19:00,
2013-03-06 22:34:00,41.8,41.0,29.93,South,179,6.0,6.0,95,0.00,,,0.50,weatherlink.com 1.10,2013-03-07 06:34:00,
2013-03-06 22:49:00,41.9,41.0,29.93,SE,146,2.0,7.0,95,0.00,,,0.50,weatherlink.com 1.10,2013-03-07 06:49:00,
2013-03-06 23:04:00,41.8,41.0,29.94,ESE,113,8.0,10.0,95,0.00,,,0.50,weatherlink.com 1.10,2013-03-07 07:04:00,
2013-03-06 23:19:00,41.8,41.0,29.94,SW,232,1.0,7.0,95,0.00,,,0.50,weatherlink.com 1.10,2013-03-07 07:19:00,
2013-03-06 23:34:00,41.8,41.0,29.94,SE,139,5.0,8.0,95,0.00,,,0.50,weatherlink.com 1.10,2013-03-07 07:34:00,
2013-03-06 23:49:00,41.5,40.0,29.94,East,81,6.0,6.0,95,0.00,,,0.50,weatherlink.com 1.10,2013-03-07 07:49:00,